Theta_e
313 314 315 316 317 318 318 318 318 319 318 319 320 321 321 322 319 299 297 308 314 321 319 308 312 312 311 306 307 308 298 295 294 295 295 302 299 303 300 298 299 301 310 323 328
312 313 314 315 316 318 318 318 318 319 320 319 319 320 321 321 308 294 309 318 322 322 306 299 299 308 303 306 304 301 296 295 302 300 297 302 302 302 298 296 297 299 302 303 310
311 312 312 313 315 317 318 318 319 320 321 319 319 319 319 318 294 293 313 317 319 319 306 302 300 302 301 303 304 299 296 301 303 303 302 301 300 302 298 295 297 296 297 298 298
311 311 311 312 314 316 317 318 318 318 318 319 319 317 316 305 284 295 312 314 319 308 303 300 297 294 297 300 304 299 304 304 304 302 299 298 302 297 298 298 303 299 299 298 297
310 310 310 311 313 315 316 317 318 317 316 316 315 317 299 289 290 297 309 305 305 303 300 299 296 294 291 299 301 298 302 304 304 302 300 303 300 300 299 300 302 300 298 297 297
309 309 309 310 312 314 315 316 317 316 315 315 311 309 292 283 297 296 297 300 301 301 299 298 296 297 293 293 292 293 295 296 300 297 297 299 300 301 302 299 299 298 297 297 297
308 308 308 309 311 313 315 316 316 316 315 315 315 298 291 287 296 295 296 297 300 301 298 299 299 296 295 292 295 294 291 293 293 296 294 298 290 290 297 298 296 296 295 295 294
307 307 308 308 311 311 314 313 313 313 314 316 313 294 287 298 295 295 294 294 300 303 301 300 297 297 292 295 293 288 289 285 289 290 293 293 284 292 295 294 292 292 292 292 293
306 306 307 307 311 311 313 312 310 312 312 305 293 288 283 299 292 294 292 291 295 301 299 298 294 287 289 288 282 283 278 283 285 286 286 290 285 290 292 291 289 289 289 290 290
305 305 306 307 310 312 313 310 311 303 298 297 294 286 289 286 291 292 293 295 297 294 293 291 286 280 280 280 273 277 277 280 278 281 283 287 285 287 289 289 287 288 288 288 288
305 305 306 306 308 312 305 299 292 287 289 285 285 286 288 291 294 289 290 292 293 290 283 285 279 274 275 278 282 280 277 274 278 283 281 285 283 285 286 286 285 286 286 287 287
305 304 304 306 306 307 298 291 290 290 283 289 289 289 291 290 285 288 290 287 286 279 284 278 275 279 281 280 281 278 275 274 278 282 281 284 282 284 285 284 284 285 285 285 286
304 303 304 308 306 298 293 292 298 297 283 287 288 287 288 289 284 285 286 285 283 280 278 275 277 282 280 277 277 276 274 274 275 280 283 283 280 281 283 283 284 284 285 285 285
303 303 304 308 294 292 289 295 299 297 277 280 284 286 287 287 282 289 287 284 282 278 281 277 280 279 277 275 276 274 277 277 277 274 268 281 275 281 280 280 281 282 281 283 284
302 302 303 301 289 288 291 295 297 292 265 281 283 291 287 282 282 284 287 284 276 279 279 275 275 274 275 276 279 276 279 277 277 275 273 276 269 274 280 277 278 280 281 281 283
301 301 299 292 288 289 293 296 293 275 262 279 283 281 279 281 281 284 281 283 282 279 278 276 280 277 275 278 279 280 278 280 281 275 264 271 269 269 274 275 277 279 280 281 281
300 300 294 292 284 290 293 291 275 268 278 275 276 279 277 275 278 278 276 273 270 268 271 275 274 277 278 274 278 277 272 258 260 260 263 273 267 269 276 277 278 277 278 279 281
299 299 295 292 290 291 291 281 267 267 274 280 278 278 274 275 276 276 275 270 273 272 268 267 268 274 277 274 273 274 271 260 254 260 264 272 263 271 279 280 278 278 279 279 279
300 291 289 290 291 290 284 271 267 276 278 276 278 274 274 275 274 274 271 270 273 273 265 264 269 276 276 276 275 272 267 274 260 255 259 268 273 277 279 278 276 276 277 278 279
288 288 288 293 292 289 278 271 273 279 278 277 275 274 269 272 271 271 271 274 273 275 275 271 264 274 276 277 277 274 275 264 260 253 251 263 266 266 275 274 275 275 275 277 279
288 284 291 292 290 282 272 266 278 279 279 277 274 274 272 272 272 270 270 274 275 275 276 273 266 270 275 271 269 271 270 269 264 263 255 255 263 269 273 274 273 274 276 277 278
286 276 290 291 278 276 267 272 281 276 278 277 277 276 274 273 272 271 271 274 278 275 270 275 264 260 269 272 273 274 270 269 258 259 263 263 262 278 275 276 276 276 277 278 279
281 278 290 288 270 262 273 277 277 276 276 276 275 276 275 273 265 272 270 276 278 276 272 272 263 255 263 268 273 270 272 273 266 262 257 255 261 276 276 276 278 278 279 279 280
281 274 278 280 280 275 268 270 271 278 276 277 276 276 274 272 273 264 270 276 278 275 280 277 266 262 260 264 268 266 269 269 262 254 263 263 267 272 274 275 277 278 279 279 278
279 271 276 269 272 276 276 272 269 270 276 276 275 274 273 263 271 264 271 274 276 279 277 271 260 265 267 270 269 269 269 270 266 267 260 267 267 271 274 275 276 278 279 278 278
276 273 275 271 278 276 275 273 272 274 274 273 274 275 275 265 271 265 271 273 273 274 274 274 259 263 260 268 269 268 270 270 270 270 269 269 268 275 275 276 275 277 277 276 277
282 282 278 274 275 272 273 276 276 276 276 277 275 274 274 275 276 276 277 276 275 273 269 267 262 258 254 264 259 258 263 269 269 270 268 264 271 274 273 275 275 275 276 276 277
Wind_Speed
19 19 19 18 18 17 15 13 13 11 9 8 8 7 7 8 10 27 21 14 10 14 12 4 0 3 2 4 3 2 4 3 4 7 8 11 12 12 3 9 8 8 7 0 2
19 19 19 18 18 17 15 14 13 11 8 5 7 7 7 6 2 21 23 25 17 11 6 6 4 2 5 3 3 4 4 4 5 10 4 10 17 13 11 15 13 21 21 25 21
19 19 19 18 17 16 15 15 13 12 9 6 3 5 6 3 7 9 27 27 23 11 4 2 3 3 5 2 2 2 4 6 3 15 12 13 16 14 14 17 14 18 19 21 24
20 20 19 19 17 15 14 15 14 13 13 11 2 4 7 3 6 11 25 25 20 13 2 2 3 4 3 4 2 6 6 7 5 8 7 9 5 7 21 11 12 19 19 24 25
19 19 18 19 16 15 14 14 14 12 15 17 17 3 7 10 6 15 21 18 10 9 9 5 7 5 5 4 4 4 7 10 13 9 5 12 8 3 10 19 20 22 26 24 23
19 19 18 17 16 13 13 11 13 13 11 10 19 13 8 16 11 17 15 10 10 7 7 7 3 2 3 4 4 2 4 5 6 10 11 10 3 5 6 13 20 22 23 23 25
19 19 18 17 15 13 12 10 12 13 16 8 8 8 19 6 9 9 13 8 7 3 4 5 4 7 2 3 2 2 15 18 14 5 5 6 17 17 13 18 20 21 20 20 21
19 19 18 17 16 12 9 11 7 9 13 9 7 9 8 4 8 19 12 10 11 5 4 4 11 3 4 1 4 6 5 6 9 11 5 7 12 13 13 19 18 19 18 18 20
18 18 17 16 16 10 8 13 18 11 8 21 12 9 7 14 20 19 7 7 9 6 10 15 9 7 11 4 7 9 3 6 4 14 6 7 9 12 15 17 17 16 15 15 16
19 17 16 14 17 12 9 3 8 14 9 4 11 7 9 12 9 13 16 7 2 10 9 12 8 11 15 12 3 4 4 5 5 9 7 17 13 12 14 16 14 14 15 16 17
18 18 16 12 14 11 5 5 7 11 15 10 3 6 5 15 4 20 12 13 10 9 7 11 15 11 9 7 2 8 8 5 3 6 6 12 13 12 10 13 14 13 14 14 15
19 19 16 13 13 9 7 7 3 4 10 7 6 3 4 7 5 27 15 11 11 13 4 8 15 11 8 15 10 10 5 6 6 5 2 13 13 11 10 11 12 12 12 13 14
19 19 16 13 6 11 7 5 4 5 7 6 6 4 6 6 7 16 10 6 8 15 17 12 6 7 7 13 9 4 7 3 5 7 4 13 8 10 8 10 10 10 8 10 13
19 20 16 2 9 1 5 6 5 3 8 14 12 8 15 5 7 7 10 4 10 5 6 9 8 7 7 6 6 3 5 4 6 3 2 2 1 4 6 9 10 9 8 7 9
17 19 15 13 5 5 3 5 4 3 9 11 8 6 7 11 5 16 7 8 7 10 8 2 5 8 8 6 5 6 15 6 4 2 4 7 6 2 2 6 6 6 7 7 7
14 18 11 6 5 1 4 4 3 12 3 6 6 8 7 8 10 10 10 11 4 8 9 5 2 5 4 5 5 12 6 6 5 4 4 4 5 4 1 2 1 2 5 7 10
8 9 8 2 1 3 2 3 10 10 5 8 5 6 5 7 8 10 7 15 8 7 8 6 4 3 6 7 8 14 8 5 8 7 6 2 4 6 5 3 2 6 7 8 8
6 5 3 3 2 1 3 9 12 5 4 1 3 2 5 7 6 9 4 7 8 7 4 5 6 7 8 3 3 5 4 6 4 2 6 11 4 4 6 5 6 4 5 5 6
4 2 3 4 1 2 7 9 9 6 2 1 3 5 4 4 4 5 5 3 5 7 6 5 1 4 4 3 3 7 6 2 5 1 4 4 1 4 4 2 3 6 5 5 5
3 3 3 7 2 4 10 5 3 3 3 1 2 1 2 4 5 6 3 3 2 5 2 0 3 2 4 2 5 5 1 5 5 3 5 6 5 6 5 4 4 4 6 6 5
4 5 4 7 4 9 6 5 4 3 3 2 2 2 2 2 3 2 1 1 2 3 4 2 5 5 1 4 1 5 2 4 5 4 5 3 7 6 8 6 2 4 5 6 7
3 4 5 4 8 4 3 6 5 3 1 2 2 3 2 2 1 2 1 3 3 1 2 1 5 2 1 4 1 3 3 4 7 6 2 3 9 4 7 6 5 3 7 7 8
3 2 4 4 6 1 3 3 2 4 4 4 3 3 2 3 3 1 2 2 4 2 4 2 2 4 8 6 5 2 2 3 4 4 7 4 9 4 7 10 18 22 19 16 12
5 3 7 6 2 9 7 2 2 2 3 3 4 4 3 2 3 4 2 3 6 4 6 6 1 7 8 6 3 3 4 2 6 4 5 13 21 19 21 22 19 20 19 14 6
4 3 4 1 4 4 4 6 5 4 1 3 1 5 6 3 3 3 2 2 4 7 4 6 4 2 6 10 4 9 15 14 11 15 8 20 18 22 20 21 20 20 14 4 7
5 6 4 2 2 5 1 6 8 4 8 4 5 9 7 7 8 9 7 4 4 3 6 3 4 2 6 11 8 12 19 14 16 17 19 22 25 21 17 12 11 14 6 7 7
1 2 6 2 3 5 5 7 9 9 6 5 8 5 8 10 7 5 7 5 6 7 5 6 3 3 7 3 5 10 11 10 5 7 8 8 17 14 14 15 13 10 7 6 5
Wind_Direction
15 14 15 14 13 13 13 8 5 3 2 354 1 2 4 354 324 36 28 335 323 323 320 255 282 53 80 77 69 316 44 74 18 3 331 9 19 358 69 52 42 14 20 47 25
13 11 11 15 13 14 13 8 3 0 1 1 349 347 345 351 36 30 350 343 333 326 343 1 5 48 57 82 59 67 101 112 43 39 357 16 13 11 26 33 19 27 24 32 28
9 12 9 14 13 12 9 0 355 4 5 29 27 359 334 346 66 354 342 337 326 326 248 289 312 351 75 90 94 126 96 161 23 21 12 29 20 351 27 32 13 30 38 32 32
7 9 9 9 10 8 7 1 356 7 5 15 23 72 1 34 63 336 335 331 325 332 14 247 315 354 86 76 86 96 110 111 19 33 26 52 24 2 44 27 17 49 41 37 33
7 8 9 8 7 6 7 5 357 7 21 16 35 110 48 49 17 337 332 324 334 0 38 15 38 11 50 104 99 64 153 142 162 183 157 128 116 304 33 31 36 42 41 35 33
7 5 6 8 8 11 2 3 5 360 19 30 55 59 62 64 313 347 335 321 346 16 25 31 15 315 12 65 71 319 110 83 173 113 48 126 88 119 357 41 47 47 44 37 34
9 2 4 11 11 13 355 350 350 355 18 30 89 94 66 83 349 342 342 301 336 344 19 352 328 67 318 79 355 51 83 58 22 24 95 124 45 41 54 59 47 45 44 37 32
11 3 2 9 11 6 8 359 343 339 0 29 57 72 87 330 343 4 356 332 335 340 0 350 24 64 33 319 49 21 45 73 27 8 325 66 65 45 48 61 52 43 37 33 32
13 9 0 6 4 353 54 17 20 7 24 38 37 91 359 327 1 347 36 300 299 327 34 45 52 47 10 44 31 10 52 69 16 18 349 62 99 53 46 54 49 41 40 36 30
12 11 2 360 0 334 321 300 328 25 352 32 44 52 13 334 330 334 342 347 27 37 23 22 54 46 29 30 63 4 33 34 38 349 21 91 90 62 52 57 50 42 36 34 30
14 8 2 353 2 357 27 32 26 7 44 89 303 76 310 325 62 1 349 356 15 35 64 15 63 37 26 358 350 73 64 4 339 12 12 99 92 76 64 62 51 43 36 33 29
14 9 359 350 16 37 60 73 86 173 76 78 97 81 285 332 349 4 7 52 38 46 27 29 40 345 35 18 75 73 73 352 296 314 5 116 90 85 68 64 55 45 38 30 22
12 8 356 336 356 45 75 71 328 349 86 15 62 26 339 5 39 356 15 344 58 59 56 75 339 12 46 32 25 65 84 349 274 325 51 121 116 95 82 75 63 54 46 37 28
9 8 359 344 46 76 52 332 340 351 77 343 353 14 355 340 39 338 2 21 24 38 90 63 355 22 41 44 8 316 59 318 280 52 170 64 192 131 99 68 49 37 27 20 25
9 10 2 46 131 56 291 324 319 56 53 320 343 304 4 69 276 348 15 22 43 16 74 269 25 14 31 354 353 268 309 268 208 160 63 331 72 237 99 57 24 24 24 18 11
9 6 14 18 52 327 310 329 46 43 279 334 355 354 20 9 357 334 15 30 51 62 52 77 54 54 310 305 345 319 347 39 56 86 39 265 109 261 196 144 354 19 16 13 6
2 10 35 17 125 309 343 51 41 90 326 311 334 356 61 353 9 16 33 38 36 25 11 357 18 6 11 5 349 1 34 359 4 10 216 71 41 246 168 134 35 30 15 10 2
348 6 69 81 288 52 62 51 70 237 222 206 309 330 63 14 4 10 46 24 10 26 56 41 350 13 340 48 290 328 82 131 202 307 292 343 262 263 173 181 68 62 43 10 347
348 3 37 325 265 86 73 53 187 208 137 102 348 65 8 3 71 57 58 59 25 15 100 28 214 330 47 339 44 316 38 142 99 129 33 259 305 325 178 83 18 32 18 340 334
91 62 324 313 34 69 70 155 163 108 116 120 112 89 94 357 53 50 42 333 61 25 61 305 346 318 303 27 6 81 266 45 7 46 306 291 287 243 190 259 353 333 309 306 322
61 52 270 331 60 47 107 196 124 83 80 73 148 87 112 107 99 110 248 226 59 347 29 76 98 298 8 37 188 356 27 42 116 133 175 291 268 218 195 212 207 317 317 307 301
83 48 297 27 54 51 98 166 128 146 56 108 99 109 124 121 86 119 154 157 110 38 86 141 143 270 252 287 254 91 171 109 115 285 246 181 272 218 234 191 174 267 291 298 285
82 216 317 73 116 14 312 69 80 143 166 149 131 124 121 143 67 241 122 136 132 69 158 238 325 0 344 353 353 95 204 132 104 76 213 132 258 279 328 316 313 314 315 319 313
79 33 337 42 97 128 134 189 111 23 132 126 124 106 96 133 106 201 199 217 166 157 151 94 173 171 195 204 145 276 272 234 135 145 233 228 265 285 291 293 300 296 293 298 270
38 234 185 210 324 108 104 129 138 163 201 139 135 174 160 133 153 215 255 227 189 197 169 122 196 210 265 271 245 260 263 257 229 241 235 272 276 277 282 287 288 289 294 249 273
123 124 3 149 86 90 82 207 162 173 151 220 202 185 166 159 183 192 155 190 197 135 160 166 265 83 284 265 272 266 262 255 250 256 257 264 273 270 273 276 282 282 246 252 279
301 46 101 240 115 92 216 180 193 147 220 185 180 137 189 214 183 184 181 178 171 156 164 141 137 57 268 345 360 298 239 226 188 207 213 244 267 294 297 300 291 274 250 274 284